Regional Weather Roundup
Issued by NWS

Home | Current Version | Previous Version | Text Only | Print | Product List | Glossary Off
Versions: 1 2 3 4 5 6 7 8 9 10 11 12 13 14 15 16 17 18 19 20 21 22 23 24 25 26 27 28 29 30 31 32 33 34 35 36 37 38 39 40 41 42 43 44 45 46 47 48 49 50

000
ASUS43 KOAX 232110
RWRNE

WEATHER ROUNDUP FOR NEBRASKA
NATIONAL WEATHER SERVICE OMAHA NE
400 PM CDT THU OCT 23 2014

NOTES: SATELLITE DATA IS BEING USED TO AUGMENT CLOUD COVER ABOVE
       12000 FEET.
       "FAIR" INDICATES FEW OR NO CLOUDS BELOW 12,000 FEET WITH NO
       SIGNIFICANT WEATHER AND/OR OBSTRUCTIONS TO VISIBILITY.

  * THESE STATIONS DO NOT REPORT WEATHER SUCH AS RAIN...SNOW OR FOG.

NEZ001>004-019>022-054>056-232200-
NEBRASKA PANHANDLE

CITY           SKY/WX    TMP DP  RH WIND       PRES   REMARKS
SCOTTSBLUFF    SUNNY     76  33  21 W13       29.99F
ALLIANCE       CLOUDY    71  31  22 W17       29.99F
CHADRON        CLOUDY    72  36  26 SW10      29.93F
KIMBALL        MOSUNNY   73  32  22 SW13G22   30.05S
SIDNEY         PTSUNNY   72  36  26 W15       30.05F
$$

NEZ057>060-069>072-079>082-232200-
SOUTHWEST NEBRASKA

CITY           SKY/WX    TMP DP  RH WIND       PRES   REMARKS
NORTH PLATTE   CLOUDY    75  40  28 S10       29.98F
IMPERIAL       MOSUNNY   77  38  24 W7        30.01F
LEXINGTON      CLOUDY    69  53  55 S10       30.02S
MCCOOK         MOSUNNY   72  46  39 S10       30.02F
OGALLALA       PTSUNNY   76  37  24 SW9       30.00S
$$

NEZ005>010-023>029-035>040-094-232200-
NORTH CENTRAL NEBRASKA

CITY           SKY/WX    TMP DP  RH WIND       PRES   REMARKS
VALENTINE      CLOUDY    75  35  23 SW15      29.93F
AINSWORTH      CLOUDY    74  35  24 SW15      29.95S
BROKEN BOW     PTSUNNY   71  50  47 S12       29.99F
O`NEILL        SUNNY     74  39  28 S10       29.96F
ORD            MOSUNNY   72  47  40 SW14      29.97F
THEDFORD       CLOUDY    77  37  23 SW16G23   29.97F
$$

NEZ041-046>049-061>064-073>077-083>087-232200-
SOUTH CENTRAL NEBRASKA

CITY           SKY/WX    TMP DP  RH WIND       PRES   REMARKS
GRAND ISLAND   SUNNY     63  54  72 S9        30.02F
AURORA         SUNNY     64  56  73 SW9       30.02F
HASTINGS       MOSUNNY   62  53  72 SW8       30.03F
HEBRON         SUNNY     74  51  44 SW7       30.02F
HOLDREGE       PTSUNNY   59  54  83 S3        30.03F
KEARNEY *      PTSUNNY   64  54  68 S12       30.03F
YORK           SUNNY     70  52  52 SW7       30.02F
$$

NEZ011>018-030>034-042>045-232200-
NORTHEAST NEBRASKA

CITY           SKY/WX    TMP DP  RH WIND       PRES   REMARKS
NORFOLK        SUNNY     71  43  36 S13       29.99F
ALBION         SUNNY     69  49  47 S13       29.99F
BLAIR          SUNNY     71  48  43 S6        30.01F
COLUMBUS *     SUNNY     70  48  46 SW7       30.02F
FREMONT        SUNNY     72  47  41 S5        30.01F
TEKAMAH        SUNNY     73  47  39 S10       29.99F
WAYNE          SUNNY     72  46  39 S12       29.99S
$$

NEZ050>053-065>068-078-088>093-232200-
SOUTHEAST NEBRASKA

CITY           SKY/WX    TMP DP  RH WIND       PRES   REMARKS
LINCOLN        SUNNY     72  50  45 S6        30.02F
OMAHA EPPLEY   MOSUNNY   72  47  40 VRB3      30.01F
BEATRICE       SUNNY     73  53  49 S5        30.02S
FALLS CITY     SUNNY     73  54  51 CALM      30.01F
NEBRASKA CITY  SUNNY     71  43  36 CALM      30.02F
PLATTSMOUTH    SUNNY     71  49  46 CALM      30.02S
$$

NEZ044-045-051>053-067-232200-
OMAHA AREA

CITY           SKY/WX    TMP DP  RH WIND       PRES   REMARKS
OMAHA EPPLEY   MOSUNNY   72  47  40 VRB3      30.01F
BLAIR          SUNNY     71  48  43 S6        30.01F
FREMONT        SUNNY     72  47  41 S5        30.01F
MILLARD        SUNNY     71  50  47 CALM      30.01F
OFFUTT AFB     SUNNY     72  53  51 W2        30.01F
PLATTSMOUTH    SUNNY     71  49  46 CALM      30.02S
WAHOO          FAIR      72  43  35 S8        30.01F
$$



USA.gov is the U.S. government's official web portal to all federal, state and local government web resources and services.